Regional Weather Roundup
Issued by NWS

Home | Current Version | Previous Version | Text Only | Print | Product List | Glossary On
Versions: 1 2 3 4 5 6 7 8 9 10 11 12 13 14 15 16 17 18 19 20 21 22 23 24 25 26 27 28 29 30 31 32 33 34 35 36 37 38 39 40 41 42 43 44 45 46 47 48 49 50
000
ASCA44 KEWX 270320
RWRMX

LATIN AMERICA AND CARIBBEAN REGIONAL WEATHER ROUNDUP
NATIONAL WEATHER SERVICE AUSTIN/SAN ANTONIO TX
1000 PM CDT SUN APR 26 2015

NOTE: "FAIR" INDICATED FEW OR NO CLOUDS BELOW 12,000 FEET WITH NO
SIGNIFICANT WEATHER AND/OR OBSTRUCTIONS TO VISIBILITY.

BAJA CALIFORNIA

CITY           SKY/WX    TMP DP  RH WIND       PRES   REMARKS
LORETO           N/A    N/A N/A N/A MISG        N/A
LA PAZ         MOCLDY    73  61  64 N7        29.85
MEXICALI       MOCLDY    77  34  20 W5        29.80
S.J. DEL CABO  MOCLDY    75  59  57 SE9       29.84R
TIJUANA        PTCLDY    61  50  67 W7        29.96R

NORTHWESTERN MEXICO

CITY           SKY/WX    TMP DP  RH WIND       PRES   REMARKS
CULIACAN       MOCLDY    77  57  50 CALM      29.81
DURANGO        CLOUDY    66  30  26 S10       30.04
GUAYMAS          N/A    N/A N/A N/A MISG        N/A
HERMOSILLO     CLEAR     77  45  31 NW12      29.82R
CD. JUAREZ     PTCLDY    59  39  47 W16       29.80
LOS MOCHIS     PTCLDY    72  54  53 NW7       29.80R
OBREGON        CLEAR     70  46  43 W5        29.77

NORTHEASTERN MEXICO

CITY           SKY/WX    TMP DP  RH WIND       PRES   REMARKS
CHIHUAHUA      CLEAR     64  30  27 N21       29.82
MONTERREY      PTCLDY    77  70  78 SE7       29.57R
REYNOSA        MOCLDY    79  73  83 SE3       29.56  HAZE
TORREON        MOCLDY    88  52  29 SW12      29.72R
CD. VICTORIA   MOCLDY    84  75  74 SE9       29.56  HX  92

WESTERN MEXICO

CITY           SKY/WX    TMP DP  RH WIND       PRES   REMARKS
AGUASCALIENTES MOCLDY    64  28  25 W9        30.11
DEL BAJIO      CLOUDY    73  45  35 W12       30.14R
GUADALAJARA    CLOUDY    72  48  43 W5        30.06
MAZATLAN       MOCLDY    70  54  56 W9        29.78R
P. VALLARTA    CLOUDY    79  72  78 SW8       29.79S
ZACATECAS      MOCLDY    64  34  32 SW12      30.12

CENTRAL MEXICO

CITY           SKY/WX    TMP DP  RH WIND       PRES   REMARKS
MEXICO CITY    CLEAR     72  37  28 SW7       30.19R
MORELIA        PTCLDY    66  45  45 SW7       30.10
POZA RICA      LGT RAIN  86  81  84 S7        29.58F HX 102
QUERETARO      PTCLDY    70  46  43 W8        30.13R
S. LUIS POTOSI CLOUDY    75  34  22 W12       30.04R
TAMPICO        PTCLDY    82  79  89 SE5       29.57R HAZE    HX  93
TOLUCA         PTCLDY    61  34  36 W3        30.30R

SOUTHERN MEXICO

CITY           SKY/WX    TMP DP  RH WIND       PRES   REMARKS
ACAPULCO       PTCLDY    82  77  83 W8        29.78R HX  91
B. DE HUATULCO   N/A     79  72  78 W17       29.82
OAXACA         MOCLDY    75  50  41 SE10      30.05R
VERACRUZ       PTCLDY    84  77  79 CALM      29.63R HX  94

YUCATAN PENINSULA

CITY           SKY/WX    TMP DP  RH WIND       PRES   REMARKS
CAMPECHE       CLEAR     86  77  74 N12       29.65R HX  97
CANCUN         PTCLDY    81  75  83 SE13      29.79R
COZUMEL        CLEAR     75  73  94 SE6       29.79R
MERIDA         CLEAR     82  75  78 CALM      29.71R
TAPACHULA      PTCLDY    84  79  84 CALM      29.81R HX  96
TUX. GUTIERREZ CLEAR     84  63  48 CALM      29.81R
VILLAHERMOSA   CLEAR     86  75  70 E5        29.64R HX  95

CENTRAL AMERICA

CITY           SKY/WX    TMP DP  RH WIND       PRES   REMARKS
MANAGUA          N/A     86  72  62 SE7       29.77R HX  92

CARIBBEAN

CITY           SKY/WX    TMP DP  RH WIND       PRES   REMARKS
ARUBA          PTCLDY    81  77  89 E10       29.83R
KINGSTON       PTCLDY    82  73  74 SE13      29.89S
NASSAU           N/A     79  70  73 SW3         N/A
SAN JUAN       CLEAR     81  73  78 SW3       29.96S
SANTO DOMINGO  PTCLDY    77  73  88 S5        29.94R
ST. CROIX      PTCLDY    79  73  83 SE6       29.99
ST. MAARTEN    PTCLDY    81  72  74 VRB2      29.97S
ST. THOMAS     CLEAR     81  73  78 SE8       29.97

$$




USA.gov is the U.S. government's official web portal to all federal, state and local government web resources and services.